CZ-6A R/B

Satellite information

Favourite Embed

Satellite Type and Status

ROCKET BODYIN ORBIT

Key statistics

Satellite CZ-6A R/B at a glance.

Uptime

30

Days in orbit

Revolutions

≈ 13.9

Per day

Orbit

LEO

Low Earth Orbit

Inclination

86.5

Latest

Satellite identification and parameters

Extended collection of information and parameters for CZ-6A R/B.

Object identification

Identified? True

Debris? False

Object name: CZ-6A R/B

International designator: 2025-220F

Object number (NORAD): 65822

Object ID (CCSDS): 65822

Country: PEOPLES REPUBLIC OF CHINA (PRC)

Current information (Y/N): Y

Orbital parameters

Period: 103.287 minutes

Inclination: 86.505 deg

SMA: 7292.179 km

Apoapsis: 990.5 km

Periapsis: 837.589 km

RAAN: 122.2835 deg

Eccentricy: 0.01048464

Argument of periapsis: 25.4662 deg

Mean anomaly: 335.1624 deg

Mean motion: 13.94173225 rev/day

Mean motion (dot): 0.00000088 rev/day2

B* drag term: 0.000050614357 1/REarth

Two-line elements (TLE)

Creation date: Oct. 27, 2025, 2:46 a.m.

Reference frame: TEME

Reference center: EARTH

Epoch: Oct. 26, 2025, 10:19 p.m. UTC

TLE line 0: 0 CZ-6A R/B

TLE line 1: 1 65822U 25220F 25299.93054214 .00000088 00000-0 50614-4 0 9995

TLE line 2: 2 65822 86.5050 122.2835 0104846 25.4662 335.1624 13.94173225 4106

Live tracking on map

Real-time ground track for satellite CZ-6A R/B.

In-orbit conjunctions

There are no conjunctions computed for CZ-6A R/B, at the moment. Check back to stay up to date, as we update our databases every day.

Go to all conjunctions

Associated space launch

A batch of 5 Low Earth Orbit communication satellites for the Chinese state owned SatNet constellation operated by the China Satellite Network Group. The constellation will eventually consists of 13000 satellites.

CZ-6A R/B was lifted into orbit during the mission ‘Long March 6A | SatNet LEO Group 11’, on board a Long March 6A space rocket.

The launch took place on Sept. 27, 2025, 12:40 p.m. from Launch Complex 9A.

For more information about the launch, click the button.

Launch to space Long March 6A | SatNet LEO Group 11
Long March 6A | SatNet LEO Group 11

Agency: N/A

Status: Launch Successful

Launch date: Sept. 27, 2025, 12:40 p.m. UTC

Rocket: Long March 6A

Launch pad: Launch Complex 9A

Location: Taiyuan Satellite Launch Center, People's Republic of China

...

Latest news about this satellite

News about space launch
China boosts broadband, IoT and weather satellite fleets with flurry of launches

A flurry of launch activity has seen China add to an Internet of Things constellation, loft new broadband satellites and boost its weather satellite fleet. The post China boosts broadband, IoT and weather satellite fleets with flurry of launches appeared...

News about space launch
Launch Roundup: Kuiper, Starlink, IMAP headline launch manifest

A busy slate of launches is planned for the last full week of September, including… The post Launch Roundup: Kuiper, Starlink, IMAP headline launch manifest appeared first on NASASpaceFlight.com.


Newsletter sign-up

Weekly statistics, charts and insights to help you stay on top of the space industry.